CAPE
0 0 0 0 20 69 69 91 80 46 8 0 0 0 0 0 0 0 0 0 0 0 0 0 0 0 7 39 91 198 286 249 179 164 157 98 98 157
2 16 42 39 59 61 87 84 76 57 29 0 0 0 0 0 0 0 0 0 0 0 0 0 0 0 0 4 13 28 60 89 103 121 216 212 138 115
35 119 128 127 114 116 108 106 84 49 25 0 0 0 0 0 0 0 0 0 0 0 0 0 0 0 0 0 0 0 0 18 33 65 158 225 187 119
90 192 160 154 169 146 177 146 118 64 65 0 4 0 0 0 0 0 0 0 0 0 0 0 0 0 0 0 0 0 0 0 0 5 36 97 126 97
21 88 150 182 155 171 137 125 107 79 60 7 0 0 0 0 0 0 0 0 0 0 0 0 0 0 0 0 0 0 0 0 0 0 0 0 8 41
8 57 216 214 158 106 86 88 99 97 81 81 52 50 0 0 0 0 0 0 0 0 0 0 0 0 0 0 0 0 0 0 0 0 0 0 0 0
1 7 59 114 93 61 76 72 80 99 97 34 20 5 2 2 1 0 0 0 0 0 0 0 0 0 0 0 0 1 1 0 0 0 0 0 0 0
0 0 0 0 4 1 9 51 41 34 23 47 19 15 15 14 0 0 0 4 6 0 0 0 0 0 0 0 0 0 1 1 0 0 0 0 0 0
0 0 0 0 0 0 0 0 0 0 0 0 0 1 23 0 2 0 11 19 9 1 0 0 0 0 0 0 0 0 0 0 1 1 0 0 0 0
0 0 0 0 0 0 0 0 1 1 0 0 0 0 0 0 0 0 0 0 0 0 0 1 0 0 0 0 0 0 0 0 0 0 0 0 0 0
0 0 0 0 0 0 0 0 0 1 2 1 2 2 2 1 0 0 0 1 1 1 0 0 0 0 0 0 0 0 0 0 0 0 0 0 0 0
1 1 5 2 0 0 0 0 0 0 1 1 0 0 0 0 1 0 0 1 0 1 0 0 0 0 0 0 0 0 0 0 0 0 0 0 0 0
2 3 4 10 8 4 0 0 0 0 2 0 1 1 0 0 1 1 1 1 0 0 0 0 0 0 0 0 0 0 0 0 0 0 0 0 0 1
3 2 6 10 10 9 4 9 4 1 0 0 0 1 1 1 1 0 0 0 0 0 0 0 0 0 0 0 0 0 0 0 0 0 0 0 0 1
4 5 4 3 3 4 12 7 2 0 0 0 1 1 0 0 0 0 0 0 0 0 0 1 0 0 0 0 0 0 0 0 0 0 0 0 0 0
0 0 1 1 3 2 0 0 1 0 1 1 1 0 0 0 0 0 0 0 0 0 0 0 0 0 0 0 0 0 0 0 0 0 0 0 0 0
0 0 0 0 0 0 1 0 0 0 1 1 1 1 0 1 0 0 0 0 0 0 0 0 0 0 0 0 0 0 0 0 0 0 0 0 0 0
0 0 0 0 0 1 0 0 2 3 2 1 2 2 1 0 0 0 0 0 0 0 0 0 0 0 0 0 0 0 0 0 0 0 0 1 1 0
0 0 0 1 1 1 1 1 2 1 0 0 0 0 2 0 0 0 0 0 0 0 0 0 0 0 0 0 0 0 0 0 0 0 1 0 0 0
0 0 0 0 1 0 0 0 0 0 0 0 0 0 0 1 0 0 0 0 0 0 0 0 0 0 0 0 0 0 0 0 0 0 0 0 0 3
0 0 0 0 0 0 0 0 0 0 0 0 0 0 0 0 0 0 0 3 4 0 0 0 0 0 0 0 0 0 0 0 1 0 0 0 0 0
0 1 0 2 0 0 0 0 0 0 0 0 0 0 0 0 0 0 0 0 0 0 0 0 0 0 0 0 0 0 0 0 0 0 0 0 2 2
0 0 2 3 0 0 0 0 0 0 0 0 0 0 0 0 0 1 0 0 0 0 0 0 0 0 0 0 0 0 0 0 0 0 0 0 0 0
CIN
0 0 0 0 -10 -10 -16 -9 -4 -2 -9 0 0 0 0 0 0 0 0 0 0 0 0 0 0 0 -143 -95 -46 -21 -13 -12 -19 -14 -15 -22 -29 -11
-5 -11 -30 -14 -19 -23 -22 -26 -22 -8 -3 0 0 0 0 0 0 0 0 0 0 0 0 0 0 0 0 -231 -173 -118 -68 -31 -31 -28 -12 -8 -10 -20
-9 -9 -14 -27 -27 -26 -26 -24 -37 -39 -13 0 0 0 0 0 0 0 0 0 0 0 0 0 0 0 0 0 0 0 0 -80 -59 -46 -13 -12 -4 -15
-15 -21 -16 -19 -45 -28 -31 -31 -41 -58 -20 0 -32 0 0 0 0 0 0 0 0 0 0 0 0 0 0 0 0 0 0 0 0 -71 -43 -12 -6 -11
-65 -42 -29 -58 -43 -49 -53 -47 -62 -65 -61 -9 0 0 0 0 0 0 0 0 0 0 0 0 0 0 0 0 0 0 0 0 0 0 0 0 -38 -15
-116 -98 -67 -75 -75 -89 -90 -74 -71 -62 -53 -25 -4 -6 0 -3 -13 0 0 0 0 0 0 0 0 0 0 0 0 0 0 0 0 0 0 0 0 0
0 -167 -147 -124 -111 -96 -73 -79 -83 -57 -36 -41 -25 -8 -8 -61 -86 0 0 0 0 0 0 0 0 0 0 0 0 0 0 0 0 0 0 0 0 0
0 0 0 0 -258 -201 -163 -65 -79 -77 -60 -21 -5 -3 -13 -52 0 0 0 -43 -22 0 0 0 0 0 0 0 0 0 0 0 0 0 0 0 0 0
0 0 0 0 0 0 0 0 0 0 0 0 0 -9 -21 -3 -16 -7 -56 -45 -29 -25 0 0 0 0 0 0 0 0 0 0 0 0 0 0 0 0
0 -1 0 0 0 0 0 -1 0 0 0 0 0 0 0 0 0 0 0 0 -10 0 0 0 0 0 0 0 0 0 0 0 0 0 0 0 0 0
0 0 0 0 0 0 -1 0 0 0 0 0 0 0 0 0 0 0 0 0 0 0 0 0 0 0 0 0 0 0 0 0 0 0 0 0 0 0
0 0 0 0 0 0 0 0 0 0 0 0 0 0 0 0 0 0 0 0 0 0 0 0 0 0 0 0 0 0 0 0 0 0 0 0 0 0
0 0 0 0 0 0 0 0 0 0 0 0 0 0 0 0 0 0 0 0 0 0 0 0 0 0 0 0 0 0 0 0 0 0 0 0 0 0
0 0 0 0 0 0 0 0 0 0 0 0 0 0 0 0 0 0 0 0 0 0 0 0 0 0 0 0 0 0 0 0 0 0 0 0 0 0
0 0 0 0 0 0 0 0 0 0 0 0 0 0 0 0 0 0 0 0 0 0 0 0 0 0 0 0 0 0 0 0 0 0 0 0 0 0
0 0 0 0 0 0 0 0 0 0 0 0 0 0 0 0 0 0 0 0 0 0 0 0 0 0 0 0 0 0 0 -1 0 0 0 0 0 0
0 0 0 0 0 0 0 0 0 0 0 0 -1 -1 0 -2 -1 0 0 0 0 -1 0 0 0 0 0 0 0 0 0 0 0 0 0 0 0 0
0 0 0 0 0 0 0 0 0 0 0 0 0 0 0 0 0 0 0 0 0 0 0 0 0 0 0 0 0 0 0 0 0 0 0 0 -1 0
0 0 0 0 0 0 0 0 0 0 0 0 0 0 0 0 0 0 0 0 0 0 0 0 0 0 0 0 0 0 0 0 0 -1 -1 0 0 -1
0 0 0 0 0 0 0 0 0 0 0 0 0 0 0 0 0 0 0 0 0 0 0 0 0 0 0 0 -1 -2 0 0 -4 -1 -1 -2 -1 0
0 0 0 -1 0 0 0 0 0 0 0 0 0 0 0 0 0 0 0 0 -1 0 0 0 0 0 0 0 0 0 0 0 0 0 0 0 0 0
0 0 0 0 0 0 0 0 0 0 0 0 0 0 0 0 0 0 0 0 0 0 0 0 0 0 0 0 -1 0 -1 0 0 0 0 0 0 0
0 0 -1 0 0 0 0 0 0 0 0 0 0 0 0 0 0 0 0 0 0 0 0 0 0 0 0 0 0 -1 0 0 0 0 0 0 0 0
Wind_Speed
11 11 11 10 9 9 8 9 10 8 6 3 4 6 6 6 9 8 12 13 19 20 18 17 17 16 16 17 19 20 18 17 16 15 19 19 19 18
9 11 11 10 10 8 8 8 7 8 9 4 5 5 5 6 7 9 10 11 13 12 14 16 17 17 17 17 19 18 19 19 19 19 20 21 21 20
11 13 14 13 9 8 8 8 7 7 9 6 5 4 4 6 5 5 5 6 6 12 14 16 17 14 14 16 17 16 18 20 20 19 19 21 22 21
12 12 14 10 11 10 8 10 8 7 7 12 5 5 7 6 4 5 4 5 5 9 13 14 13 14 15 15 15 15 15 18 20 18 18 20 20 22
13 14 13 9 8 7 8 8 7 5 7 8 7 4 6 3 4 4 4 5 4 8 11 12 14 16 16 16 15 15 15 14 14 16 16 16 18 19
12 12 9 8 9 9 8 9 6 7 6 6 6 5 4 3 3 5 5 3 5 5 9 10 9 12 14 15 15 16 16 17 17 17 17 16 16 19
9 7 7 8 10 9 5 5 6 6 4 5 7 7 6 4 5 4 7 5 4 4 4 5 6 5 7 11 11 15 15 15 16 16 17 18 20 21
10 6 5 7 7 10 10 9 10 7 7 6 8 7 8 5 4 4 4 5 5 4 4 4 5 6 6 6 10 14 14 15 14 15 16 17 17 18
8 7 6 4 5 5 6 6 2 3 1 4 7 7 6 5 4 5 6 5 6 4 4 5 4 5 4 4 11 11 12 11 11 13 13 16 17 17
8 5 4 6 3 4 5 2 5 5 2 3 4 2 1 3 3 2 3 4 2 3 2 4 1 3 1 0 7 4 4 5 7 7 10 13 13 12
4 5 4 4 6 5 4 6 7 7 13 18 16 15 13 12 8 2 1 2 3 2 4 0 1 3 1 2 3 13 14 13 12 11 11 10 10 9
7 8 16 9 6 3 5 6 7 6 6 6 5 7 8 10 15 8 3 1 1 2 3 2 2 2 2 1 1 3 3 11 9 10 11 11 11 4
7 6 6 15 16 14 12 7 5 7 8 6 5 4 6 6 6 6 6 4 2 2 4 2 2 2 2 3 2 1 3 3 2 4 7 10 11 8
5 5 8 18 19 18 12 14 14 9 5 5 5 5 4 5 4 5 5 4 3 2 3 2 1 1 2 3 3 2 2 1 0 1 1 4 8 11
5 8 12 13 15 13 20 18 14 7 5 5 5 4 2 3 3 3 3 4 2 2 3 1 1 0 2 2 4 5 8 4 6 2 2 3 3 4
8 7 9 11 15 12 10 10 7 6 6 5 4 3 2 3 2 2 2 3 3 3 3 3 1 1 3 4 5 7 6 5 2 4 3 4 4 5
3 3 4 5 6 7 7 7 5 6 5 4 3 3 4 3 3 2 2 2 3 4 4 5 4 3 4 5 6 6 5 6 6 7 5 8 8 8
3 3 4 5 5 6 5 5 5 6 5 5 3 3 3 3 3 4 2 2 2 2 2 2 3 4 2 4 13 4 4 6 6 4 7 9 10 10
2 4 4 4 4 5 5 5 5 5 4 3 3 3 4 3 5 3 3 3 3 3 4 2 1 1 2 6 4 11 6 3 4 7 6 8 10 12
2 2 2 2 3 4 3 3 3 3 4 5 4 5 5 4 4 3 4 4 4 4 3 4 4 4 3 3 4 5 10 6 4 7 8 9 11 21
1 1 2 2 2 2 2 2 3 3 3 2 4 3 4 4 5 4 4 8 8 2 5 5 5 10 4 3 3 5 4 8 8 4 6 7 8 8
2 2 1 2 3 2 1 2 1 2 2 3 2 3 4 4 5 5 5 5 5 4 5 6 6 3 2 3 6 8 7 4 8 11 11 10 3 5
2 2 2 2 2 1 1 1 0 1 2 2 3 3 4 5 5 5 5 5 6 6 5 5 3 2 2 2 4 5 4 4 3 4 4 7 13 13
Wind_Direction
243 242 239 245 249 242 237 236 240 242 241 236 232 210 214 205 219 212 228 217 224 226 229 239 238 236 233 226 226 230 228 225 225 225 221 219 218 215
243 240 239 240 236 229 225 225 221 234 250 199 229 221 215 222 215 210 225 224 232 229 228 235 241 233 231 230 228 225 225 224 225 227 225 222 216 217
246 242 238 234 235 226 220 221 216 208 238 250 221 225 231 222 227 220 211 212 234 230 233 233 241 241 238 235 234 228 224 227 229 227 230 225 216 215
251 249 245 241 234 230 217 219 208 192 218 250 223 222 218 228 216 217 214 213 218 229 233 237 240 243 243 240 237 233 230 228 225 224 227 228 221 222
262 257 246 233 235 229 217 212 201 192 204 237 238 222 223 210 235 238 223 237 227 233 242 239 238 237 237 235 235 234 233 229 225 223 217 222 227 228
269 248 235 221 223 220 213 206 192 197 197 221 236 234 212 209 213 236 252 212 250 218 235 229 223 233 242 242 229 223 219 217 224 227 223 220 223 228
282 261 246 227 225 224 200 207 195 199 195 214 237 244 232 210 204 199 228 252 248 207 226 229 228 223 243 240 242 229 229 226 227 229 230 230 231 227
295 298 287 265 242 237 237 218 193 188 205 212 233 222 223 203 197 202 226 229 256 205 206 248 194 231 234 225 224 227 224 229 232 238 238 242 238 235
285 295 304 299 290 269 266 243 256 323 123 207 223 226 234 219 193 195 212 216 235 216 183 249 179 221 208 222 229 233 233 229 224 230 235 242 240 238
265 284 282 286 249 234 234 181 106 68 272 206 227 108 63 331 247 283 266 242 238 78 10 243 26 231 56 32 32 354 287 264 248 249 250 252 253 248
27 20 26 16 350 312 256 142 117 97 82 87 89 89 71 46 17 165 218 136 244 184 13 46 72 301 1 64 43 71 57 49 48 44 35 21 5 348
34 37 36 33 29 274 195 170 158 154 130 107 88 71 54 45 41 44 20 145 144 64 8 332 343 16 341 78 86 61 37 47 28 17 351 349 339 326
25 22 28 37 42 57 74 65 82 104 98 80 68 50 62 40 41 27 36 31 356 70 33 9 359 22 39 316 308 11 65 10 359 347 359 342 326 317
40 32 40 46 45 44 52 66 76 72 75 76 68 50 24 49 23 23 24 25 33 334 19 14 351 34 63 344 285 327 301 287 348 290 304 330 324 312
43 46 45 47 49 45 47 49 43 44 42 58 64 55 34 45 15 14 13 11 35 49 52 81 13 297 201 228 303 318 326 334 316 284 305 293 292 298
27 33 40 48 54 48 46 42 36 48 46 46 43 32 13 360 352 31 24 3 40 337 347 80 121 304 277 255 257 275 278 288 320 287 279 292 282 263
53 35 30 31 33 38 44 31 38 36 35 28 25 18 15 2 355 2 79 347 31 355 341 329 338 227 220 224 266 252 271 271 281 293 304 296 286 278
23 39 52 48 37 31 32 34 39 36 26 5 8 10 8 0 346 359 9 10 333 293 276 281 336 326 311 267 215 239 252 258 254 256 266 270 275 273
84 45 40 40 40 42 33 19 16 6 1 21 356 348 349 347 356 336 324 310 308 286 277 257 233 203 276 287 263 224 234 237 263 272 266 279 277 282
44 64 46 48 59 57 33 25 7 356 9 5 359 349 338 324 319 311 308 297 283 284 307 314 276 250 233 252 273 275 205 258 256 286 284 280 275 277
151 138 119 102 71 58 73 39 4 342 26 2 354 334 321 314 304 296 292 310 318 294 286 275 265 278 262 266 262 279 277 267 247 218 277 282 300 298
223 179 173 155 133 114 59 63 23 9 329 344 316 295 301 297 291 289 294 294 286 276 276 277 282 289 244 238 297 296 300 306 306 283 259 250 274 295
205 196 210 189 156 145 66 6 57 291 294 285 296 307 302 301 299 289 288 288 287 287 284 294 289 360 262 178 287 296 285 290 282 313 296 304 307 292